This demonstration page uses our WeatherBlox Daily Observations layout. Learn more.

Left ArrowRight Arrow

36.19886, -115.1175

Hourly Observations for September 6, 2021

Temp ( °F °C ) Dew Point ( °F °C ) Humidity (%) Winds ( mph kmh ) Pressure ( in mb ) Visibility ( mi km ) Precip ( " mm )
12:53 am 00:53 Clear 90 32.2 35 1.7 14 14 Calm 29.89 1012 10 16 0.00 0.00
1:53 am 01:53 Clear 85 29.4 36 2.2 17 17 WNW 7 11 29.88 1012 10 16 0.00 0.00
2:53 am 02:53 Clear 89 31.7 29 -1.7 11 11 NNW 13 20 29.86 1011 10 16 0.00 0.00
3:53 am 03:53 Clear 89 31.7 29 -1.7 11 11 NW 15 24 29.87 1011 10 16 0.00 0.00
4:53 am 04:53 Clear 86 30 30 -1.1 13 13 WNW 10 17 29.89 1012 10 16 0.00 0.00
5:53 am 05:53 Clear 86 30 28 -2.2 12 12 NW 16 26 29.91 1013 10 16 0.00 0.00
6:53 am 06:53 Sunny 86 30 28 -2.2 12 12 NNW 13 20 29.93 1013 10 16 0.00 0.00
7:53 am 07:53 Sunny 89 31.7 30 -1.1 12 12 S 3 6 29.96 1015 10 16 0.00 0.00
8:53 am 08:53 Sunny 91 32.8 30 -1.1 11 11 W 6 9 29.97 1015 10 16 0.00 0.00
9:53 am 09:53 Sunny 96 35.6 33 0.6 11 11 NE 6 9 29.97 1015 10 16 0.00 0.00
10:53 am 10:53 Sunny 98 36.7 34 1.1 11 11 E 6 9 29.97 1015 10 16 0.00 0.00
11:53 am 11:53 Sunny 101 38.3 33 0.6 9 9 E 7 11 29.95 1014 10 16 0.00 0.00
12:53 pm 12:53 Sunny 102 38.9 34 1.1 9 9 SE 6 9 29.93 1014 10 16 0.00 0.00
1:53 pm 13:53 Sunny 104 40 34 1.1 9 9 SE 7 11 29.91 1013 10 16 0.00 0.00
2:53 pm 14:53 Sunny 107 41.7 32 0 7 7 Calm 29.87 1012 10 16 0.00 0.00
3:53 pm 15:53 Sunny 107 41.7 34 1.1 8 8 NW 5 7 29.85 1011 10 16 0.00 0.00
4:53 pm 16:53 Sunny 106 41.1 34 1.1 8 8 S 3 6 29.84 1010 10 16 0.00 0.00
5:53 pm 17:53 Sunny 106 41.1 34 1.1 8 8 Calm 29.83 1010 10 16 0.00 0.00
6:53 pm 18:53 Sunny 105 40.6 34 1.1 8 8 Calm 29.83 1010 10 16 0.00 0.00
7:53 pm 19:53 Clear 101 38.3 35 1.7 10 10 Calm 29.84 1011 10 16 0.00 0.00
8:53 pm 20:53 Clear 98 36.7 39 3.9 13 13 WNW 6 9 29.86 1011 10 16 0.00 0.00
9:53 pm 21:53 Clear 94 34.4 40 4.4 15 15 NW 7 11 29.86 1011 10 16 0.00 0.00
10:53 pm 22:53 Clear 90 32.2 38 3.3 16 16 NW 8 13 29.86 1011 10 16 0.00 0.00
11:53 pm 23:53 Clear 90 32.2 39 3.9 17 17 W 6 9 29.86 1011 10 16 0.00 0.00

Powered by AerisWeather